Tracking 30995 objects as of 7-Jul-2025
HD Live streaming from Space Station
objects crossing your sky now

DELTA 1 R/B

Track DELTA 1 R/B now!
10-day predictions
DELTA 1 R/B is classified as:


NORAD ID: 20323
Int'l Code: 1989-089B
Perigee: 682.3 km
Apogee: 780.6 km
Inclination: 97.1 °
Period: 99.3 minutes
Semi major axis: 7102 km
RCS: 8.9124 m2 (large)
Launch date: November 18, 1989
Source: United States (US)
Launch site: AIR FORCE WESTERN TEST RANGE (AFWTR)

Note: This is a ROCKET BODY
Your satellite tracking list
Your tracking list is empty




NASA's NSSDC Master Catalog

Two Line Element Set (TLE):
1 20323U 89089B   25187.63054796  .00000190  00000-0  55903-4 0  9993
2 20323  97.1022  68.8872 0069211 178.5905 181.5501 14.50409275860064
Source of the keplerian elements: AFSPC